Location: Mount Tamalpais State Park
(37.9108°N, 122.6128°W)
Time: 06:42:23
(UTC-07:00)

Cosmos 1814 Rocket - Visible Passes

Search period start: 27 May 2017 00:00
Search period end: 06 June 2017 00:00
Orbit: 745 x 788 km, 74.1° (Epoch: 26 May)

Date Brightness Start Highest point End Pass type
(mag) Time Alt. Az. Time Alt. Az. Time Alt. Az.
27 May 5.5 03:45:37 10° N 03:50:33 37° ENE 03:55:29 10° SE visible
28 May 6.4 03:08:39 10° N 03:12:47 22° ENE 03:16:54 10° ESE visible
28 May 4.4 04:49:56 10° NNW 04:54:59 44° WSW 05:00:02 10° S visible
29 May 6.8 02:32:22 10° NNE 02:34:53 13° NE 02:37:23 10° E visible
29 May 4.0 04:12:10 10° NNW 04:17:32 79° WSW 04:22:52 10° SSE visible
30 May 4.5 03:34:40 10° N 03:39:59 60° ENE 03:45:15 10° SSE visible
31 May 5.5 02:57:26 10° N 03:02:18 34° ENE 03:07:09 10° SE visible
31 May 5.0 04:39:43 10° NW 04:44:09 27° W 04:48:05 12° SSW visible
01 Jun 6.3 02:20:32 10° NNE 02:24:31 21° ENE 02:28:29 10° ESE visible
01 Jun 4.3 04:01:39 10° NNW 04:06:47 47° WSW 04:09:53 22° SSW visible
02 Jun 6.7 01:44:24 10° NNE 01:46:35 12° NE 01:48:46 10° E visible
02 Jun 3.9 03:23:56 10° NNW 03:29:19 85° WSW 03:31:54 32° SSE visible
03 Jun 4.6 02:46:28 10° N 02:51:44 55° ENE 02:54:06 31° SE visible
03 Jun 5.6 04:30:00 10° WNW 04:33:13 16° W 04:34:16 15° WSW visible
04 Jun 5.5 02:09:15 10° N 02:14:03 32° ENE 02:16:26 23° ESE visible
04 Jun 4.9 03:51:23 10° NW 03:55:56 29° W 03:56:36 28° WSW visible
05 Jun 6.2 01:32:25 10° NNE 01:36:14 19° ENE 01:38:52 14° E visible
05 Jun 4.2 03:13:23 10° NNW 03:18:34 51° WSW 03:19:03 49° WSW visible
